Location: Impruneta
(43.6833°N, 11.2500°E)
Time: 12:26:37
(UTC+00:00)

Daily predictions for brighter satellites

Satellite Brightness Start Highest point End
(mag) Time Altitude Azimuth Time Altitude Azimuth Time Altitude Azimuth
SL-24 R/B 4.4 16:44:03 10° SSE 16:48:31 87° WSW 16:53:31 10° NNW
Cosmos 1626 Rocket 3.7 16:44:56 10° S 16:49:14 55° E 16:53:35 10° NNE
Cosmos 1092 Rocket 4.3 16:44:08 10° SSE 16:49:58 46° E 16:55:48 10° NNE
Cosmos 1898 Rocket 3.6 16:47:21 10° S 16:52:31 62° ESE 16:57:41 10° NNE
Cosmos 923 Rocket 4.2 16:49:26 10° NNW 16:54:47 83° WSW 17:00:04 10° SSE
CZ-4C R/B 4.2 16:53:48 10° N 16:56:48 39° WNW 16:59:51 10° SW
CZ-2C R/B 4.4 16:56:09 10° ENE 16:58:06 12° E 17:00:03 10° ESE
Nadezhda 4 Rocket 4.0 16:52:27 10° S 16:58:41 88° E 17:04:53 10° N
Cosmos 1680 Rocket 3.5 16:53:49 10° NNW 16:59:05 82° ENE 17:04:17 10° SSE
Cosmos 1328 4.1 16:57:43 10° SSE 17:01:30 44° E 17:05:18 10° NNE
CZ-2D R/B 3.6 17:01:00 10° SE 17:04:36 40° ENE 17:08:13 10° N
CZ-4B R/B 1.6 17:02:15 10° NNE 17:05:26 46° E 17:08:31 10° S
MOS 1 Rocket 3.5 17:03:08 10° NNE 17:07:11 40° E 17:11:17 10° SSE
Cosmos-2242 3.8 17:06:43 10° NNE 17:10:31 29° ENE 17:14:18 10° SE
NOSS 3-1 (C) 4.2 17:05:42 10° NW 17:13:19 87° NE 17:22:07 10° SE
COSMO-SKYMED 1 2.6 17:10:17 10° NNE 17:14:36 60° E 17:18:53 10° S
Cosmos 1937 Rocket 3.5 17:09:53 10° S 17:15:09 71° ESE 17:20:29 10° NNE
Cosmos 1758 Rocket 4.0 17:11:45 10° SSE 17:15:57 42° E 17:20:12 10° NNE
BREEZE-M DEB (TANK) 3.1 17:14:03 10° NW 17:15:58 24° NNE 17:17:15 16° ENE
Aureole 3 3.7 17:15:15 10° NNW 17:18:11 47° W 17:21:03 10° S
USA 290 2.7 17:19:35 10° N 17:22:34 36° ENE 17:25:32 10° SE
NOSS 2-1 (C) 4.3 17:20:32 10° WSW 17:23:38 35° NW 17:26:51 10° NNE
CZ-4 R/B 4.4 17:20:28 10° SSE 17:24:33 62° ENE 17:28:40 10° N
Cosmos 1833 Rocket 2.7 17:21:03 10° NNW 17:26:35 57° ENE 17:32:06 10° SE
H-2A R/B 2.4 17:22:17 10° SE 17:27:00 41° ENE 17:31:52 10° N
Cosmos 1939 Rocket 3.4 17:25:16 10° S 17:29:18 64° W 17:33:20 10° NNW
NOSS 2-1 (D) 4.5 17:26:36 10° WSW 17:29:36 31° NW 17:32:45 10° NNE
Helios 1A Rocket 3.7 17:26:00 10° SE 17:29:38 30° ENE 17:33:17 10° N
H-2A R/B 3.7 17:27:39 10° N 17:31:39 36° WNW 17:35:32 10° SW
Cosmos 1602 Rocket 3.9 17:28:26 10° SSW 17:32:45 68° W 17:37:09 10° N
Cosmos 2344 4.4 17:23:55 10° NW 17:33:19 72° NE 17:46:29 10° SE
Cosmos 2026 Rocket 3.9 17:27:45 10° S 17:33:52 79° E 17:40:09 10° N
Feng Yun 1-1 Rocket 4.3 17:29:03 10° SSE 17:34:31 83° WSW 17:40:11 10° NNW
USA 229 DEB 3.9 17:27:23 10° NW 17:34:45 86° NE 17:42:30 10° SE
USA 229 3.9 17:27:29 10° NW 17:34:52 86° NE 17:42:37 10° SE
CZ-3B R/B 2.3 17:32:46 10° NW 17:35:37 65° NE 17:44:41 10° ESE
SJ 16-02 3.8 17:33:13 10° WSW 17:36:27 20° WNW 17:39:40 10° NNW
YAOGAN 1 2.7 17:34:25 10° SSE 17:38:35 51° ENE 17:42:48 10° N
SJ-11-01 4.5 17:35:56 10° SE 17:40:24 47° ENE 17:44:53 10° N
Cosmos 1689 Rocket 2.1 17:41:34 33° NE 17:42:25 46° E 17:45:09 10° S
Cosmos 1553 Rocket 4.1 17:37:04 10° N 17:43:22 57° ENE 17:49:32 10° SSE
Aureole 3 Rocket 2.7 17:40:37 10° N 17:43:57 84° W 17:48:10 10° S
COSMOS 2406 3.2 17:40:10 10° NNW 17:45:59 90° ENE 17:51:44 10° SSE
HJ-1C 4.3 17:47:04 29° NE 17:47:04 29° NE 17:49:21 10° N
Cosmos 2082 Rocket 2.5 17:40:54 10° NNW 17:46:24 45° ENE 17:51:40 11° SE
Cosmos 1825 Rocket 3.5 17:43:26 10° S 17:47:46 69° E 17:52:11 10° NNE
IRS-1C Rocket 4.1 17:42:48 10° SSE 17:48:03 85° WSW 17:53:21 10° NNW
Meteor 1-27 4.2 17:44:39 10° N 17:50:11 59° ENE 17:55:39 10° SSE
NOSS 3-1 (A) 4.1 17:42:49 10° NW 17:50:29 89° SW 17:59:18 10° SSE
X-37B 0.6 17:47:26 10° WNW 17:50:37 76° SSW 17:51:36 41° ESE
deb Kosmos-1763 4.5 17:49:38 10° N 17:52:52 38° ENE 17:52:52 38° ENE
ISS -2.0 17:50:44 10° NW 17:53:24 21° N 17:53:50 20° NNE
Okean O Rocket 4.3 17:50:45 10° SSW 17:54:14 22° W 17:57:43 10° NW
NOAA 15 4.5 17:50:20 10° SSE 17:55:35 79° ENE 18:00:54 10° NNW
CZ-4 R/B 1.4 17:54:14 10° S 17:58:16 82° WSW 18:02:16 10° NNW
Iridium 4 Rocket 3.8 17:56:11 10° N 18:01:29 67° W 18:06:17 10° S
CSL-04 Rocket 3.7 17:57:15 10° SSE 18:02:33 57° ENE 18:07:58 10° N
ERS-2 2.4 17:59:02 10° N 18:02:39 67° WNW 18:06:15 10° SSW
Okean-O 2.7 18:01:19 10° S 18:05:44 80° WSW 18:10:11 10° NNW
USA 234 4.4 18:05:52 20° NE 18:08:50 28° N 18:14:11 10° NW
S3M 3.9 18:03:47 10° N 18:09:52 62° E 18:15:56 10° SSE
Cosmos 1346 Rocket 3.2 18:07:01 10° SSW 18:10:54 60° WNW 18:14:49 10° N
Cosmos 1655 Rocket 3.9 18:04:56 10° S 18:11:02 59° E 18:17:07 10° NNE
Cosmos 2278 Rocket 2.6 18:06:01 10° SW 18:11:38 64° WNW 18:17:12 11° NNE
Cosmos 1953 Rocket 3.4 18:09:55 10° S 18:14:16 87° E 18:17:58 14° N
CZ-2C R/B 4.3 18:09:07 10° S 18:14:20 46° W 18:19:50 10° NNW
Cosmos 2292 Rocket 3.4 18:14:04 10° S 18:19:06 83° E 18:20:40 37° NNE
Cosmos 1892 4.0 18:15:35 10° S 18:17:22 26° SSE 18:17:22 26° SSE
SAR-Lupe-4 4.5 18:17:50 15° N 18:20:35 48° WNW 18:24:01 10° SSW
Cosmos 44 Rocket 3.2 18:17:03 10° SSW 18:21:56 80° ESE 18:23:18 49° NE
ARGOS 3.1 18:22:24 10° SSE 18:27:46 82° WSW 18:33:11 10° NNW
Meteor 2-2 Rocket 4.3 18:25:28 10° N 18:31:25 63° ENE 18:34:20 31° SSE
Cosmos 1869 4.3 18:27:50 10° N 18:30:11 35° N 18:30:11 35° N
CZ-2C R/B 2.6 18:33:45 11° NNE 18:39:09 85° ESE 18:44:47 10° SSW
Cosmos 468 4.4 18:34:00 10° NNW 18:39:17 86° WSW 18:41:13 40° SSE
Milstar 3 4.5 18:37:04 10° SSW 18:42:50 19° S 18:44:24 18° SSE
Cosmos 494 Rocket 4.1 18:38:05 10° NNW 18:42:29 60° NNE 18:42:29 60° NNE
Cosmos 2150 Rocket 4.1 18:39:13 10° SSW 18:44:22 73° WNW 18:45:58 44° N
Cosmos 1048 Rocket 4.1 18:43:06 10° NNW 18:48:14 73° WSW 18:49:37 48° S
Cosmos 2297 3.7 18:46:30 10° SSW 18:51:23 64° SSE 18:51:23 64° SSE
SL-08 RB Rocket 4.4 18:59:19 50° WSW 18:59:36 51° W 19:03:59 10° NNW
H-2A R/B 4.1 19:02:26 10° SSW 19:06:34 25° W 19:10:50 10° NW
Cosmos 1125 Rocket 3.9 19:03:55 10° SSW 19:08:41 59° W 19:08:41 59° W
Cosmos 2266 Rocket 4.5 19:07:12 10° SSW 19:13:20 58° W 19:19:24 10° N
Cosmos 1943 Rocket 4.2 19:22:01 10° SSW 19:23:18 18° SSW 19:23:18 18° SSW
Cosmos 2082 Rocket 4.0 19:25:26 10° NW 19:30:14 28° WSW 19:33:41 16° SSW
